KB5PRZ Weather Reports


time (UTC)temp
C
wind
direction
speed
KPH
gust
KPH
rain 1hr
cm
rain 24hr
cm
rain mn
cm
humidity
%
barometer
mb
20210920062716 26 156 8.0 14.5 0.00 0.00 0.00 64 1007.0
20210920061814 26 195 6.4 11.3 0.00 0.00 0.00 63 1007.0
20210920060817 26 166 3.2 9.7 0.00 0.00 0.00 62 1007.2
20210920055913 26 137 9.7 20.9 0.00 0.00 0.00 61 1007.2
20210920054915 26 156 4.8 11.3 0.00 0.00 0.00 60 1007.1
20210920053915 26 159 8.0 11.3 0.00 0.00 0.00 58 1007.1
20210920052913 26 134 4.8 11.3 0.00 0.00 0.00 57 1006.9
20210920051916 27 179 1.6 12.9 0.00 0.00 0.00 56 1006.9
20210920050915 27 284 1.6 12.9 0.00 0.00 0.00 55 1007.1
20210920045919 27 148 11.3 16.1 0.00 0.00 0.00 54 1007.1
20210920044920 27 155 6.4 16.1 0.00 0.00 0.00 53 1007.0
20210920043919 27 223 6.4 20.9 0.00 0.00 0.00 52 1006.9
20210920043017 28 172 11.3 17.7 0.00 0.00 0.00 51 1006.9
20210920042020 28 155 14.5 19.3 0.00 0.00 0.00 50 1006.8
20210920041118 28 142 6.4 12.9 0.00 0.00 0.00 50 1006.8
20210920040118 28 144 6.4 9.7 0.00 0.00 0.00 50 1006.6
20210920035120 28 131 4.8 8.0 0.00 0.00 0.00 49 1006.6
20210920034217 28 117 3.2 6.4 0.00 0.00 0.00 48 1006.6
20210920033218 28 157 4.8 9.7 0.00 0.00 0.00 48 1006.6
20210920032217 28 162 6.4 11.3 0.00 0.00 0.00 47 1006.6
20210920031217 29 150 3.2 9.7 0.00 0.00 0.00 46 1006.7
20210920030217 29 124 1.6 4.8 0.00 0.00 0.00 45 1006.5
20210920025317 30 130 6.4 9.7 0.00 0.00 0.00 45 1006.4
20210920024317 30 137 4.8 11.3 0.00 0.00 0.00 44 1006.3
20210920023320 30 128 3.2 11.3 0.00 0.00 0.00 43 1006.1
20210920022418 31 199 6.4 12.9 0.00 0.00 0.00 43 1006.0
20210920021418 31 161 4.8 11.3 0.00 0.00 0.00 42 1005.9
20210920020418 31 191 3.2 11.3 0.00 0.00 0.00 42 1005.8
20210920015517 31 189 9.7 17.7 0.00 0.00 0.00 41 1005.5
20210920014519 31 204 4.8 17.7 0.00 0.00 0.00 40 1005.5
20210920013617 31 189 4.8 11.3 0.00 0.00 0.00 40 1005.4
20210920012618 31 162 6.4 11.3 0.00 0.00 0.00 39 1005.3
20210920011618 31 123 4.8 12.9 0.00 0.00 0.00 38 1005.2
20210920010618 32 347 1.6 11.3 0.00 0.00 0.00 38 1005.2
20210920005618 32 159 3.2 9.7 0.00 0.00 0.00 37 1005.2
20210920004618 32 184 3.2 14.5 0.00 0.00 0.00 36 1005.1
20210920003617 33 147 3.2 8.0 0.00 0.00 0.00 36 1005.0
20210920002618 33 40 1.6 6.4 0.00 0.00 0.00 35 1005.2
20210920001717 33 150 1.6 4.8 0.00 0.00 0.00 35 1005.1
20210920000718 34 138 6.4 11.3 0.00 0.00 0.00 35 1005.2
20210919235716 34 156 4.8 9.7 0.00 0.00 0.00 35 1005.0
20210919234718 35 135 4.8 8.0 0.00 0.00 0.00 34 1005.1
20210919233718 35 140 3.2 6.4 0.00 0.00 0.00 34 1005.0
20210919232719 35 134 3.2 6.4 0.00 0.00 0.00 34 1005.0
20210919231719 35 146 4.8 9.7 0.00 0.00 0.00 34 1004.9
20210919230718 36 146 6.4 11.3 0.00 0.00 0.00 34 1005.1
20210919225735 36 154 1.6 8.0 0.00 0.00 0.00 34 1005.2
20210919224817 36 123 4.8 9.7 0.00 0.00 0.00 35 1005.2
20210919223916 36 138 6.4 11.3 0.00 0.00 0.00 35 1005.1
20210919222918 37 135 1.6 4.8 0.00 0.00 0.00 35 1005.2
20210919221917 37 124 3.2 6.4 0.00 0.00 0.00 35 1005.3
20210919220917 37 78 0.0 1.6 0.00 0.00 0.00 36 1005.3
20210919215919 36 90 1.6 1.6 0.00 0.00 0.00 36 1005.2
20210919215834 36 132 1.6 6.4 0.00 0.00 0.00 36 1005.3
20210919214917 36 157 4.8 8.0 0.00 0.00 0.00 37 1005.3
20210919213918 36 136 6.4 9.7 0.00 0.00 0.00 37 1005.3
20210919213016 36 77 0.0 3.2 0.00 0.00 0.00 37 1005.4
20210919212018 36 83 3.2 4.8 0.00 0.00 0.00 38 1005.5
20210919211018 35 58 1.6 6.4 0.00 0.00 0.00 38 1005.5
20210919210036 35 360 0.0 1.6 0.00 0.00 0.00 39 1005.8
20210919205018 36 45 1.6 6.4 0.00 0.00 0.00 39 1005.9
20210919204018 36 104 0.0 3.2 0.00 0.00 0.00 40 1005.9
20210919203017 36 152 1.6 3.2 0.00 0.00 0.00 40 1006.1
20210919202017 35 166 4.8 9.7 0.00 0.00 0.00 41 1006.3
20210919201017 35 97 0.0 3.2 0.00 0.00 0.00 41 1006.5
20210919200017 35 329 3.2 6.4 0.00 0.00 0.00 42 1006.7
20210919195116 35 66 6.4 9.7 0.00 0.00 0.00 42 1006.9
20210919195017 35 23 6.4 9.7 0.00 0.00 0.00 43 1006.9
20210919194017 35 315 3.2 6.4 0.00 0.00 0.00 43 1006.9
20210919193017 35 155 1.6 8.0 0.00 0.00 0.00 44 1007.2
20210919192116 34 37 0.0 1.6 0.00 0.00 0.00 44 1007.4
20210919191117 33 59 3.2 6.4 0.00 0.00 0.00 45 1007.5
20210919190118 33 312 4.8 8.0 0.00 0.00 0.00 45 1007.9
20210919185119 33 316 9.7 12.9 0.00 0.00 0.00 46 1008.1
20210919184116 34 316 4.8 11.3 0.00 0.00 0.00 47 1008.3
20210919183117 34 206 3.2 9.7 0.00 0.00 0.00 47 1008.4
20210919182118 33 299 1.6 8.0 0.00 0.00 0.00 48 1008.6
20210919181118 33 76 3.2 4.8 0.00 0.00 0.00 49 1008.8
20210919180117 34 314 1.6 6.4 0.00 0.00 0.00 50 1009.1
20210919175216 35 189 4.8 8.0 0.00 0.00 0.00 51 1009.3
20210919174216 33 332 1.6 4.8 0.00 0.00 0.00 52 1009.6
20210919173216 33 135 4.8 8.0 0.00 0.00 0.00 53 1009.6
20210919172217 33 315 3.2 6.4 0.00 0.00 0.00 54 1010.0
20210919171216 33 45 1.6 3.2 0.00 0.00 0.00 55 1010.0
20210919170217 33 306 4.8 9.7 0.00 0.00 0.00 56 1010.0
20210919165316 33 196 1.6 4.8 0.00 0.00 0.00 57 1010.2
20210919164316 33 341 4.8 8.0 0.00 0.00 0.00 59 1010.2
20210919163316 32 215 0.0 0.0 0.00 0.00 0.00 60 1010.4
20210919162416 32 345 1.6 4.8 0.00 0.00 0.00 61 1010.3
20210919161418 31 21 0.0 1.6 0.00 0.00 0.00 62 1010.5
20210919160416 31 311 3.2 8.0 0.00 0.00 0.00 63 1010.5
20210919155418 31 284 4.8 8.0 0.00 0.00 0.00 64 1010.5
20210919154517 31 334 1.6 6.4 0.00 0.00 0.00 65 1010.7
20210919153616 30 84 0.0 3.2 0.00 0.00 0.00 66 1010.7
20210919153516 30 354 3.2 11.3 0.00 0.00 0.00 66 1010.6
20210919152517 30 213 1.6 4.8 0.00 0.00 0.00 67 1010.8
20210919151517 30 89 0.0 3.2 0.00 0.00 0.00 68 1010.7
20210919150516 29 340 1.6 4.8 0.00 0.00 0.00 69 1010.6
20210919145517 28 78 0.0 3.2 0.00 0.00 0.00 69 1010.5
20210919144615 28 314 0.0 4.8 0.00 0.00 0.00 70 1010.5
20210919143617 28 307 4.8 8.0 0.00 0.00 0.00 71 1010.5
20210919142715 28 332 3.2 6.4 0.00 0.00 0.00 71 1010.4
20210919141718 27 45 0.0 1.6 0.00 0.00 0.00 72 1010.4
20210919140718 27 246 0.0 0.0 0.00 0.00 0.00 72 1010.3
20210919135716 26 270 0.0 0.0 0.00 0.00 0.00 73 1010.2
20210919134719 26 202 0.0 0.0 0.00 0.00 0.00 74 1010.1
20210919133717 26 315 0.0 3.2 0.00 0.00 0.00 74 1010.1
20210919132717 25 337 0.0 1.6 0.00 0.00 0.00 75 1010.1
20210919131718 25 337 3.2 4.8 0.00 0.00 0.00 75 1010.0
20210919130816 24 337 0.0 0.0 0.00 0.00 0.00 75 1009.9
20210919125817 24 360 1.6 3.2 0.00 0.00 0.00 75 1010.0
20210919124817 23 360 0.0 1.6 0.00 0.00 0.00 75 1009.8
20210919123815 23 22 0.0 0.0 0.00 0.00 0.00 75 1009.7
20210919122818 23 356 0.0 1.6 0.00 0.00 0.00 74 1009.5
20210919121915 23 324 1.6 6.4 0.00 0.00 0.00 74 1009.4
20210919120916 23 333 0.0 8.0 0.00 0.00 0.00 74 1009.3
20210919115916 23 308 3.2 9.7 0.00 0.00 0.00 73 1009.3
20210919114916 23 317 3.2 8.0 0.00 0.00 0.00 73 1009.3
20210919114015 24 311 6.4 11.3 0.00 0.00 0.00 73 1009.3
20210919113016 24 320 6.4 11.3 0.00 0.00 0.00 73 1009.3
20210919112115 24 319 3.2 8.0 0.00 0.00 0.00 72 1009.3
20210919111118 24 318 4.8 8.0 0.00 0.00 0.00 72 1009.3
20210919110215 24 321 6.4 9.7 0.00 0.00 0.00 72 1009.2
20210919105216 25 324 6.4 9.7 0.00 0.00 0.00 72 1009.1
20210919104218 25 318 8.0 11.3 0.00 0.00 0.00 72 1009.3
20210919103316 25 315 6.4 9.7 0.00 0.00 0.00 71 1009.3
20210919102315 25 313 6.4 8.0 0.00 0.00 0.00 71 1009.3
20210919101316 25 296 1.6 8.0 0.00 0.00 0.00 71 1009.2
20210919100315 25 299 6.4 8.0 0.00 0.00 0.00 71 1009.3
20210919095316 25 296 6.4 9.7 0.00 0.00 0.00 71 1009.4
20210919094316 24 293 4.8 9.7 0.00 0.00 0.00 70 1009.4
20210919093316 24 318 1.6 4.8 0.00 0.00 0.00 70 1009.4
20210919092317 25 318 0.0 6.4 0.00 0.00 0.00 70 1009.3
20210919091416 25 348 0.0 4.8 0.00 0.00 0.00 70 1009.6
20210919090515 25 325 4.8 6.4 0.00 0.00 0.00 70 1009.7
20210919085518 25 315 4.8 4.8 0.00 0.00 0.00 70 1009.9
20210919084516 25 315 3.2 4.8 0.00 0.00 0.00 69 1009.9
20210919083515 25 315 3.2 4.8 0.00 0.00 0.00 69 1010.0
20210919082516 25 337 4.8 6.4 0.00 0.00 0.00 69 1010.1
20210919081517 25 292 0.0 1.6 0.00 0.00 0.00 68 1010.2
20210919080517 25 270 0.0 0.0 0.00 0.00 0.00 68 1010.2
20210919075614 25 292 1.6 4.8 0.00 0.00 0.00 68 1010.2
20210919074615 25 196 0.0 3.2 0.00 0.00 0.00 68 1010.2
20210919073616 25 292 0.0 0.0 0.00 0.00 0.00 67 1010.3
20210919072617 25 264 0.0 3.2 0.00 0.00 0.00 67 1010.3
20210919071617 25 261 0.0 3.2 0.00 0.00 0.00 67 1010.2
20210919070615 25 192 3.2 8.0 0.00 0.00 0.00 67 1010.2
20210919065616 25 198 6.4 12.9 0.00 0.00 0.00 66 1010.5
20210919064614 25 197 6.4 12.9 0.00 0.00 0.00 66 1010.5
20210919063617 25 184 4.8 9.7 0.00 0.00 0.00 66 1010.5